Météo par heure à Almásfüzitõ

Ce jour, 14 Mai, Vendredi

Heure Température Précipitation Vent Pression Humidité
00:00 +9°C° 0 mm 5 m/s 743 mmHg 83%
01:00 +9°C° 0 mm 5 m/s 743 mmHg 84%
02:00 +9°C° 0.1 mm 5 m/s 743 mmHg 85%
03:00 +9°C° 0.1 mm 5 m/s 743 mmHg 85%
04:00 +9°C° 0.1 mm 6 m/s 743 mmHg 86%
05:00 +9°C° 0.3 mm 6 m/s 743 mmHg 89%
06:00 +9°C° 0.3 mm 6 m/s 744 mmHg 91%
07:00 +9°C° 0.3 mm 6 m/s 744 mmHg 93%
08:00 +9°C° 0.3 mm 6 m/s 744 mmHg 92%
09:00 +9°C° 0.3 mm 6 m/s 745 mmHg 92%
10:00 +9°C° 0.3 mm 6 m/s 745 mmHg 92%
11:00 +10°C° 0.2 mm 6 m/s 746 mmHg 91%
12:00 +10°C° 0.2 mm 6 m/s 746 mmHg 90%
13:00 +10°C° 0.2 mm 5 m/s 746 mmHg 89%
14:00 +12°C° 0 mm 4 m/s 746 mmHg 86%
15:00 +12°C° 0 mm 4 m/s 746 mmHg 83%
16:00 +13°C° 0 mm 3 m/s 746 mmHg 80%
17:00 +13°C° 0 mm 2 m/s 746 mmHg 83%
18:00 +13°C° 0 mm 1 m/s 746 mmHg 86%
19:00 +11°C° 0 mm 0 m/s 746 mmHg 88%
20:00 +12°C° 0 mm 1 m/s 747 mmHg 89%
21:00 +11°C° 0 mm 1 m/s 747 mmHg 89%
22:00 +11°C° 0 mm 1 m/s 747 mmHg 89%
23:00 +10°C° 0 mm 1 m/s 747 mmHg 89%

Demain, 15 Mai, Samedi

Heure Température Précipitation Vent Pression Humidité
00:00 +9°C° 0 mm 0 m/s 747 mmHg 89%
01:00 +9°C° 0 mm 0 m/s 747 mmHg 89%
02:00 +9°C° 0 mm 0 m/s 747 mmHg 89%
03:00 +9°C° 0 mm 0 m/s 747 mmHg 89%
04:00 +9°C° 0 mm 1 m/s 747 mmHg 90%
05:00 +11°C° 0 mm 1 m/s 748 mmHg 86%
06:00 +12°C° 0 mm 1 m/s 748 mmHg 83%
07:00 +14°C° 0 mm 1 m/s 748 mmHg 79%
08:00 +15°C° 0.1 mm 1 m/s 748 mmHg 74%
09:00 +18°C° 0.1 mm 1 m/s 748 mmHg 69%
10:00 +18°C° 0.1 mm 2 m/s 748 mmHg 64%
11:00 +19°C° 0.3 mm 2 m/s 747 mmHg 62%
12:00 +19°C° 0.3 mm 3 m/s 747 mmHg 60%
13:00 +20°C° 0.3 mm 3 m/s 747 mmHg 59%
14:00 +20°C° 0.2 mm 3 m/s 746 mmHg 60%
15:00 +20°C° 0.2 mm 4 m/s 746 mmHg 61%
16:00 +20°C° 0.2 mm 4 m/s 746 mmHg 62%
17:00 +18°C° 0.2 mm 3 m/s 745 mmHg 69%
18:00 +17°C° 0.2 mm 3 m/s 745 mmHg 75%
19:00 +15°C° 0.2 mm 2 m/s 745 mmHg 81%
20:00 +14°C° 0.1 mm 3 m/s 745 mmHg 83%
21:00 +13°C° 0.1 mm 3 m/s 745 mmHg 85%
22:00 +12°C° 0.1 mm 3 m/s 745 mmHg 87%
23:00 +12°C° 0.3 mm 3 m/s 745 mmHg 89%

Après-demain, 16 Mai, Dimanche

Heure Température Précipitation Vent Pression Humidité
00:00 +12°C° 0.3 mm 3 m/s 744 mmHg 91%
01:00 +12°C° 0.3 mm 3 m/s 744 mmHg 93%
02:00 +12°C° 0.4 mm 3 m/s 745 mmHg 93%
03:00 +11°C° 0.4 mm 3 m/s 745 mmHg 93%
04:00 +11°C° 0.4 mm 3 m/s 745 mmHg 94%
05:00 +11°C° 0.1 mm 3 m/s 745 mmHg 94%
06:00 +10°C° 0.1 mm 4 m/s 746 mmHg 94%
07:00 +9°C° 0.1 mm 5 m/s 746 mmHg 94%
08:00 +10°C° 0.1 mm 4 m/s 746 mmHg 93%
09:00 +10°C° 0.1 mm 4 m/s 747 mmHg 92%
10:00 +10°C° 0.1 mm 4 m/s 747 mmHg 91%
11:00 +12°C° 0 mm 4 m/s 747 mmHg 81%
12:00 +14°C° 0 mm 4 m/s 747 mmHg 71%
13:00 +15°C° 0 mm 4 m/s 746 mmHg 62%
14:00 +17°C° 0 mm 3 m/s 746 mmHg 60%
15:00 +17°C° 0 mm 2 m/s 746 mmHg 58%
16:00 +18°C° 0 mm 2 m/s 746 mmHg 56%
17:00 +16°C° 0 mm 2 m/s 746 mmHg 63%
18:00 +15°C° 0 mm 2 m/s 746 mmHg 70%
19:00 +14°C° 0 mm 2 m/s 746 mmHg 77%
20:00 +13°C° 0 mm 2 m/s 746 mmHg 80%
21:00 +12°C° 0 mm 2 m/s 746 mmHg 84%
22:00 +10°C° 0 mm 2 m/s 747 mmHg 87%
23:00 +10°C° 0 mm 2 m/s 747 mmHg 88%

17 Mai, Lundi

Heure Température Précipitation Vent Pression Humidité
00:00 +10°C° 0 mm 2 m/s 747 mmHg 88%
01:00 +11°C° 0 mm 1 m/s 747 mmHg 89%
02:00 +11°C° 0 mm 1 m/s 747 mmHg 90%
03:00 +10°C° 0 mm 1 m/s 747 mmHg 91%
04:00 +10°C° 0 mm 1 m/s 747 mmHg 91%
05:00 +11°C° 0.8 mm 1 m/s 747 mmHg 93%
06:00 +11°C° 0.8 mm 1 m/s 747 mmHg 94%
07:00 +12°C° 0.8 mm 1 m/s 747 mmHg 95%
08:00 +12°C° 1 mm 1 m/s 748 mmHg 95%
09:00 +12°C° 1 mm 1 m/s 748 mmHg 94%
10:00 +12°C° 1 mm 1 m/s 748 mmHg 94%
11:00 +13°C° 0.2 mm 1 m/s 748 mmHg 92%
12:00 +13°C° 0.2 mm 1 m/s 747 mmHg 90%
13:00 +13°C° 0.2 mm 1 m/s 747 mmHg 89%
14:00 +14°C° 0.1 mm 1 m/s 747 mmHg 86%
15:00 +15°C° 0.1 mm 1 m/s 747 mmHg 84%
16:00 +14°C° 0.1 mm 0 m/s 747 mmHg 81%
17:00 +14°C° 0.1 mm 1 m/s 747 mmHg 85%
18:00 +14°C° 0.1 mm 1 m/s 747 mmHg 89%
19:00 +13°C° 0.1 mm 1 m/s 747 mmHg 92%
20:00 +13°C° 0.2 mm 1 m/s 747 mmHg 93%
21:00 +12°C° 0.2 mm 2 m/s 747 mmHg 94%
22:00 +12°C° 0.2 mm 2 m/s 748 mmHg 94%
23:00 +11°C° 0.6 mm 3 m/s 748 mmHg 94%

18 Mai, Mardi

Heure Température Précipitation Vent Pression Humidité
00:00 +11°C° 0.6 mm 4 m/s 748 mmHg 94%
01:00 +10°C° 0.6 mm 4 m/s 748 mmHg 94%
02:00 +10°C° 0.8 mm 4 m/s 747 mmHg 94%
03:00 +10°C° 0.8 mm 4 m/s 747 mmHg 94%
04:00 +10°C° 0.8 mm 3 m/s 747 mmHg 94%
05:00 +10°C° 0.7 mm 4 m/s 747 mmHg 92%
06:00 +10°C° 0.7 mm 4 m/s 747 mmHg 91%
07:00 +11°C° 0.7 mm 4 m/s 747 mmHg 89%
08:00 +12°C° 0.2 mm 5 m/s 747 mmHg 83%
09:00 +13°C° 0.2 mm 6 m/s 747 mmHg 77%
10:00 +14°C° 0.2 mm 7 m/s 747 mmHg 71%
11:00 +15°C° 0.3 mm 8 m/s 747 mmHg 70%
12:00 +15°C° 0.3 mm 8 m/s 747 mmHg 69%
13:00 +15°C° 0.3 mm 9 m/s 747 mmHg 68%
14:00 +15°C° 0.3 mm 9 m/s 748 mmHg 70%
15:00 +15°C° 0.3 mm 9 m/s 748 mmHg 71%
16:00 +15°C° 0.3 mm 8 m/s 748 mmHg 73%
17:00 +13°C° 0.1 mm 8 m/s 748 mmHg 73%
18:00 +12°C° 0.1 mm 7 m/s 749 mmHg 74%
19:00 +12°C° 0.1 mm 7 m/s 749 mmHg 74%
20:00 +11°C° 0 mm 6 m/s 749 mmHg 75%
21:00 +10°C° 0 mm 6 m/s 750 mmHg 76%
22:00 +9°C° 0 mm 5 m/s 750 mmHg 77%
23:00 +8°C° 0 mm 5 m/s 750 mmHg 78%

19 Mai, Mercredi

Heure Température Précipitation Vent Pression Humidité
00:00 +8°C° 0 mm 4 m/s 751 mmHg 80%
01:00 +7°C° 0 mm 4 m/s 751 mmHg 82%
02:00 +6°C° 0 mm 4 m/s 751 mmHg 83%
03:00 +7°C° 0 mm 3 m/s 751 mmHg 84%
04:00 +5°C° 0 mm 3 m/s 751 mmHg 85%
05:00 +8°C° 0 mm 3 m/s 751 mmHg 80%
06:00 +10°C° 0 mm 3 m/s 751 mmHg 75%
07:00 +11°C° 0 mm 3 m/s 751 mmHg 70%
08:00 +13°C° 0 mm 5 m/s 751 mmHg 66%
09:00 +14°C° 0 mm 6 m/s 751 mmHg 62%
10:00 +16°C° 0 mm 7 m/s 751 mmHg 58%
11:00 +16°C° 0.1 mm 7 m/s 751 mmHg 57%
12:00 +16°C° 0.1 mm 6 m/s 751 mmHg 57%
13:00 +17°C° 0.1 mm 6 m/s 751 mmHg 57%
14:00 +16°C° 0.1 mm 5 m/s 751 mmHg 62%
15:00 +15°C° 0.1 mm 4 m/s 751 mmHg 67%
16:00 +15°C° 0.1 mm 2 m/s 751 mmHg 72%
17:00 +14°C° 0.1 mm 2 m/s 751 mmHg 74%
18:00 +14°C° 0.1 mm 2 m/s 751 mmHg 77%
19:00 +13°C° 0.1 mm 2 m/s 751 mmHg 79%
20:00 +12°C° 0 mm 2 m/s 751 mmHg 80%
21:00 +12°C° 0 mm 2 m/s 751 mmHg 81%
22:00 +11°C° 0 mm 1 m/s 751 mmHg 82%
23:00 +11°C° 0 mm 1 m/s 751 mmHg 83%
Voir plus

Nous avons besoin de votre consentement

Meteoprog et ses fournisseurs de services peuvent stocker et accéder à des données personnelles telles que des cookies, des identifiants d'appareils ou d'autres technologies similaires sur votre appareil et traiter ces données pour personnaliser le contenu et les publicités, ainsi que pour fournir des fonctionnalités de médias sociaux et analyser le trafic.

  • Stocker et/ou accéder à des informations sur votre appareil

    Des cookies, des identifiants d'appareils ou d'autres informations peuvent être stockés ou accessibles sur votre appareil aux fins indiquées ci-dessus.

  • Annonces et contenus personnalisés, mesure des annonces et des contenus, connaissance de l'audience et développement de produits

    Les annonces et le contenu peuvent être personnalisés en fonction d'un profil. D'autres données peuvent être ajoutées pour mieux personnaliser les annonces et le contenu. Les performances des publicités et du contenu peuvent être mesurées. Il est possible d'obtenir des informations sur le public qui a vu les publicités et le contenu. Ces données peuvent être utilisées pour développer ou améliorer l'expérience de l'utilisateur, les systèmes et les logiciels.

En cliquant sur "J'accepte", vous autorisez l'utilisation de cookies, des identifiants d'appareils, des balises web ou d'autres technologies similaires. Vos paramètres peuvent être modifiés dans le navigateur de votre appareil.

Dans certains cas, des intérêts légitimes peuvent être invoqués plutôt qu'un consentement. Vous pouvez en savoir plus à ce sujet dans notre Politique de confidentialité et de cookies.